Regional Weather Roundup
Issued by NWS

Home | Current Version | Previous Version | Text Only | Print | Product List | Glossary On
Versions: 1 2 3 4 5 6 7 8 9 10 11 12 13 14 15 16 17 18 19 20 21 22 23 24 25 26 27 28 29 30 31 32 33 34 35 36 37 38 39 40 41 42 43 44 45 46 47 48 49 50
000
ASUS42 KTBW 221810
RWRFL
FLORIDA REGIONAL WEATHER ROUNDUP
NATIONAL WEATHER SERVICE TAMPA BAY RUSKIN FL
200 PM EDT FRI AUG 22 2014

NOTE: "FAIR" INDICATES FEW OR NO CLOUDS BELOW 12,000 FEET WITH NO
SIGNIFICANT WEATHER AND/OR OBSTRUCTIONS TO VISIBILITY.


FLZ001>010-012>015-112-114-115-221900-
PANHANDLE FLORIDA

CITY           SKY/WX    TMP DP  RH WIND       PRES   REMARKS
PENSACOLA      PTSUNNY   91  72  53 N10       30.08F HX  98
PENSACOLA NAS  MOSUNNY   91  75  59 SE10      30.08F HX 101
MILTON NAS     MOSUNNY   93  72  50 NW5       30.09F HX 101
CRESTVIEW      MOSUNNY   93  71  48 NW6       30.09F HX 100
DUKE FIELD     MOSUNNY   93  77  59 NW8       30.08F HX 106
VALPARAISO     PTSUNNY   94  76  54 NW5       30.07F HX 106
MARY ESTHER    PTSUNNY   91  73  54 S8        30.07F HX  99
TRI COUNTY     FAIR      94  73  50 VRB3      30.07F HX 103
PANAMA CITY    FAIR      93  73  52 N5        30.06F HX 102
TYNDALL AFB    SUNNY     91  81  70 SW10      30.07F THUNDER HX 110
APALACHICOLA   MOSUNNY   94  79  61 SW8       30.06F HX 111

STATION/POSITION SKY/WX   TEMP    WIND        PRES    WAVE   SWELL
                          AIR SEA DIR/SP/G            HT/PER HT/PER
                          (F)     (DEG/KT/KT) (MB)    (FT/S) (FT/S)
30.1N   87.6W              87 89  230/  2/  4 1019.2F   1
29.2N   88.2W              86 90  360/  8/  8 1019.7F
28.8N   86.0W              85 88  360/ 10/ 12 1018.9    1
PANAMA CITY BEAC           85 81  220/  8/  9 1018.3F
CAPE SAN BLAS    NOT AVBL
TOWER C                    85     250/  3/  4 1018.4F
28.5N   84.5W              85 87  350/  6/  8 1018.6F   1/ 8

$$
FLZ011-016>038-118-127-128-134-139-239-221900-
NORTH FLORIDA

CITY           SKY/WX    TMP DP  RH WIND       PRES   REMARKS
MARIANNA       PTSUNNY   94  74  52 N7        30.06F HX 104
TALLAHASSEE    MOSUNNY   96  71  44 CALM      30.06F HX 103
PERRY          SUNNY     91  70  49 NW7       30.08S HX  97
CROSS CITY       N/A     93  75  55 NW6       30.05F HX 104
GAINESVILLE    MOSUNNY   93  74  53 W9        30.05F HX 103
MAYPORT NAS    MOSUNNY   93  76  57 E8        30.04F HX 105
JACKSONVILLE   MOSUNNY   95  70  44 NW7       30.03F HX 101
JAX NAS        PTSUNNY   99  71  40 NE6       30.05F HX 107
JAX CRAIG      MOSUNNY   96  72  45 NW8       30.04F HX 104
JAX CECIL      PTSUNNY   95  72  46 NE9       30.05F HX 103
FERNANDINA BEA FAIR      93  73  52 E8        30.03F HX 102
ST AUGUSTINE   MOSUNNY   95  68  41 E8        30.05F HX  99

STATION/POSITION SKY/WX   TEMP    WIND        PRES    WAVE   SWELL
                          AIR SEA DIR/SP/G            HT/PER HT/PER
                          (F)     (DEG/KT/KT) (MB)    (FT/S) (FT/S)
SHELL POINT                89     170/  3/  5   N/A
KEATON BEACH               87     270/  9/ 10 1018.2F
CEDAR KEY                  87     250/  7/ 10 1019.0F
FERNANDINA                 93 85   10/  5/  7 1016.8F
30.7N   81.3W                 85                N/A     1/ 9
MAYPORT                    90 85   70/  6/  8   N/A
31.4N   80.9W              87 88  210/  2/  2 1017.4F   1/ 9
ST AUGUSTINE               83     110/  5/  5 1018.5F

$$
FLZ040-043>046-052-053-057-058-063-144-221900-
INTERIOR CENTRAL FLORIDA

CITY           SKY/WX    TMP DP  RH WIND       PRES   REMARKS
LEESBURG       MOSUNNY   93  71  48 CALM      30.06F HX 100
SANFORD        MOSUNNY   94  74  52 CALM      30.05F HX 104
ORLANDO EXEC   MOSUNNY   95  72  47 MISG      30.05F HX 103
ORLANDO INTL   PTSUNNY   93  70  46 SE3       30.05F HX  99
KISSIMMEE      MOSUNNY   91  75  59 CALM      30.05F HX 102
WINTER HAVEN   SUNNY     93  70  46 W3        30.06F HX  99
LAKELAND       MOSUNNY   93  70  46 CALM      30.06F HX  99
BARTOW         PTSUNNY   91  70  49 NW5       30.06F HX  97
OKEECHOBEE     PTSUNNY   90  73  58 MISG      30.06F HX  98

$$
FLZ041-047-054-059-064-141-147-221900-
EAST CENTRAL FLORIDA

CITY           SKY/WX    TMP DP  RH WIND       PRES   REMARKS
ORMOND BEACH   MOSUNNY   91  75  59 E8        30.06F HX 102
DAYTONA BEACH  MOSUNNY   94  77  57 E12       30.06S HX 108
DELAND         PTCLDY    91  73  55 N3        30.06F HX 100
NEW SMYRNA BEA MOSUNNY   88  73  62 E7        30.06F HX  96
JFK SPACE CTR  MOSUNNY   90 N/A N/A E7        30.06S
TITUSVILLE     MOSUNNY   91  75  59 E9        30.06F HX 102
CAPE CANAVERAL SUNNY     91  77  63 E6        30.05F HX 105
PATRICK AFB    SUNNY     88  79  74 SE10      30.06F HX 103
MELBOURNE      MOSUNNY   91  75  59 E10       30.05F HX 101
VERO BEACH     PTSUNNY   90  71  53 E9        30.05F HX  96
FT PIERCE      SUNNY     91  71  51 E10       30.05F HX  97
STUART         PTSUNNY   88  73  62 E10       30.07F HX  96

STATION/POSITION SKY/WX   TEMP    WIND        PRES    WAVE   SWELL
                          AIR SEA DIR/SP/G            HT/PER HT/PER
                          (F)     (DEG/KT/KT) (MB)    (FT/S) (FT/S)
28.5N   80.2W              83 86  210/  6/  6 1018.6F
28.9N   78.5W              84 86  170/  4/  4 1018.5F   2/ 7   2/ 7
TRIDENT PIER               88 83  110/  8/ 10 1017.6R
28.4N   80.5W                 83                N/A     1
27.6N   80.2W                 84                N/A     1/10

$$
FLZ050-056-061-142-242-148-248-149-249-151-251-155-255-
160-260-221900-
WEST CENTRAL FLORIDA

CITY           SKY/WX    TMP DP  RH WIND       PRES   REMARKS
CRYSTAL RIVER  FAIR      91  77  62 W10       30.06S HX 105
INVERNESS      FAIR      95  63  34 SE5       30.06F HX  96
BROOKSVILLE    SUNNY     95  71  45 NW3       30.06F HX 102
ZEPHYRHILLS    FAIR      93  64  38 CALM      30.06F HX  95
CLEARWATER     SUNNY     94  74  52 VRB5      30.05F HX 104
TAMPA INTL     MOSUNNY   91  73  55 SW9       30.05F HX  99
TAMPA EXEC     SUNNY     97  73  46 N6        30.06F HX 107
MACDILL AFB    SUNNY     95  80  60 W5        30.06F HX 114
ST PETERSBURG  SUNNY     89  75  63 SW5       30.04F HX  99
SARASOTA       SUNNY     94  77  57 W12       30.05F HX 108
VENICE           N/A    N/A N/A N/A MISG        N/A

STATION/POSITION SKY/WX   TEMP    WIND        PRES    WAVE   SWELL
                          AIR SEA DIR/SP/G            HT/PER HT/PER
                          (F)     (DEG/KT/KT) (MB)    (FT/S) (FT/S)
CEDAR KEY                  87     250/  7/ 10 1019.0F
28.5N   84.5W              85 87  350/  6/  8 1018.6F   1/ 8
27.3N   84.3W                 89                N/A     1/ 8
CLEARWATER BEACH           87 89  330/ 11/ 12 1017.9S
MIDDLE TAMPA BAY           86     320/  6/  8 1018.4F
VENICE                     86 90  250/  8/  9 1017.5F

$$
FLZ066-069-070-075>078-162-262-165-265-221900-
SOUTHWEST FLORIDA AND KEYS

CITY           SKY/WX    TMP DP  RH WIND       PRES   REMARKS
PUNTA GORDA    MOSUNNY   95  73  48 CALM      30.06F HX 104
FT MYERS       SUNNY     94  70  45 SE3       30.04F HX 100
SOUTHWEST INTL SUNNY     93  70  46 VRB3      30.04F HX  99
NAPLES         MOSUNNY   91  74  57 W9        30.04F HX 100
MARCO ISLAND   CLEAR     93  70  46 CALM      30.04F HX  99
MARATHON       SUNNY     92  74  55 E8        30.04F HX 101
KEY WEST NAS   CLOUDY    92  75  57 E10       30.04F HX 103
KEY WEST INTL  PTSUNNY   89  76  65 VRB5      30.05S HX 100

STATION/POSITION SKY/WX   TEMP    WIND        PRES    WAVE   SWELL
                          AIR SEA DIR/SP/G            HT/PER HT/PER
                          (F)     (DEG/KT/KT) (MB)    (FT/S) (FT/S)
VENICE                     86 90  250/  8/  9 1017.5F
NAPLES                     88     290/  7/  8 1017.9F
DRY TORTUGAS               85      60/  8/  9 1017.5F
NW FL BAY                  88     120/  6/  7 1018.2S
SAND KEY                   85      70/  5/  8 1017.5F
SOMBRERO KEY               87      90/  6/  7 1018.2F
LONG KEY                   86 90  140/  5/  6 1018.6F
MOLASSES REEF              85 88   90/ 10/ 11 1017.3F

$$
FLZ067-068-071>074-168-172>174-221900-
SOUTHEAST FLORIDA

CITY           SKY/WX    TMP DP  RH WIND       PRES   REMARKS
W PALM BEACH   MOSUNNY   91  74  57 E13       30.05F THUNDER HX 100
FT LAUDER-EXEC MOSUNNY   88  75  65 W10       30.06R THUNDER HX  97
FT LAUDERDALE  MOSUNNY   91  73  55 E12       30.05S HX  99
POMPANO BEACH  MOSUNNY   92  76  59 E10       30.06S HX 104
PEMBROKE PINES MOSUNNY   91  75  59 E10       30.06S HX 101
OPA LOCKA      MOSUNNY   91  73  55 SE9       30.05F HX  99
MIAMI          PTSUNNY   89  74  60 E7        30.05F HX  98
WEST KENDALL   MOSUNNY   93  75  55 E13       30.04F HX 104
HOMESTEAD      MOSUNNY   90  76  63 E8        30.04F HX 101

STATION/POSITION SKY/WX   TEMP    WIND        PRES    WAVE   SWELL
                          AIR SEA DIR/SP/G            HT/PER HT/PER
                          (F)     (DEG/KT/KT) (MB)    (FT/S) (FT/S)
PORT EVERGLADES            88      80/  4/  6 1017.8
VIRGINIA KEY               86 90   90/  6/  8   N/A
LAKE WORTH                 86 88   90/  6/  9 1017.6F
FOWEY ROCKS                85 89   90/  7/  7 1018.0F
SETTLEMENT POINT           86      40/  3/  4 1018.5F

$$



USA.gov is the U.S. government's official web portal to all federal, state and local government web resources and services.